Regional Weather Roundup
Issued by NWS

Home | Current Version | Previous Version | Graphics & Text | Print | Product List | Glossary On
Versions: 1 2 3 4 5 6 7 8 9 10 11 12 13 14 15 16 17 18 19 20 21 22 23 24 25 26 27 28 29 30 31 32 33 34 35 36 37 38 39 40 41 42 43 44 45 46 47 48 49 50
000
ASUS43 KFSD 130110
RWRSD

WEATHER ROUNDUP FOR SOUTH DAKOTA
NATIONAL WEATHER SERVICE SIOUX FALLS SD
700 PM CST FRI FEB 12 2016

NOTE: "FAIR" INDICATES FEW OR NO CLOUDS BELOW 12,000 FEET WITH NO
SIGNIFICANT WEATHER AND/OR OBSTRUCTIONS TO VISIBILITY.


SDZ001>005-009-010-012>017-130200-
NORTHWEST AND NORTH CENTRAL SOUTH DAKOTA

CITY           SKY/WX    TMP DP  RH WIND       PRES   REMARKS
BUFFALO          N/A     21  15  78 SE16G23   30.25F WCI   7
FAITH            N/A     18  10  71 SE14      30.42F WCI   4
MOBRIDGE       CLOUDY    12   4  70 E10       30.53S WCI  -1
$$

SDZ012>016-024>037-041>051-057-063-072>074-130200-
SOUTHWEST AND SOUTH CENTRAL SOUTH DAKOTA

CITY           SKY/WX    TMP DP  RH WIND       PRES   REMARKS
RAPID CTY ARPT CLOUDY    23  21  92 SE14      30.34F WCI  11
PIERRE         CLOUDY    15   7  70 E13       30.55R WCI   1
CUSTER         FOG       25  23  92 MISG      30.22F VSB 1/4
ELLSWORTH AFB  CLOUDY    23  23 100 SE10      30.32  WCI  12
PHILIP         LGT SNOW  23  17  78 E14       30.46S WCI  11
PINE RIDGE     CLOUDY    31  25  78 SE8       30.34S WCI  23
SPEARFISH      CLOUDY    27  25  93 E5        30.25F WCI  21
WINNER         CLOUDY    20  10  65 E12       30.53R WCI   8
$$

SDZ004>011-016>023-039-040-130200-
NORTHEAST SOUTH DAKOTA

CITY           SKY/WX    TMP DP  RH WIND       PRES   REMARKS
ABERDEEN       CLOUDY     4  -7  60 N6        30.65R WCI  -7
WATERTOWN      CLOUDY    -2 -11  65 N7        30.57R WCI -15
BROOKINGS      CLOUDY     0  -7  72 N8        30.57S WCI -14
SISSETON         N/A     -6 -12  75 N8        30.64S WCI -21
$$

SDZ017-020-022-023-036>040-048>070-130200-
SOUTHEAST SOUTH DAKOTA

CITY           SKY/WX    TMP DP  RH WIND       PRES   REMARKS
SIOUX FALLS    CLOUDY     4  -6  63 N6        30.59R WCI  -7
HURON          PTCLDY     5  -4  66 N7        30.64R WCI  -7
CHAMBERLAIN    CLOUDY    13   6  73 E8        30.58R WCI   2
MITCHELL       CLOUDY     9   0  67 N9        30.63S WCI  -4
YANKTON        CLOUDY    10   0  61 N6        30.62R WCI   1
$$

ABBREVIATIONS USED IN REMARKS
   TC - TEMPERATURE IN CELSIUS
  WCI - WIND CHILL INDEX
   HX - HEAT INDEX
  VSB - VISIBILITY




USA.gov is the U.S. government's official web portal to all federal, state and local government web resources and services.